Theta_e
352 352 353 352 352 351 351 351 351 351 350 348 346 345 345 344 343 342 342 342 343 343 342 342 342 343 344 344 344 344 345 345 344 344 343 344 344 344 346 348 350 351 352 352 352 350 349 346 344 343 343 344 344 346 347 347 347 346 347 347 347 346 345 344 343 340 334 326 326 329 332 335 336 335 334 334 336 338 336 335 336 336 334 331 329
353 352 352 353 352 352 352 352 352 352 352 351 349 348 346 346 345 343 342 341 341 342 341 340 340 341 341 342 342 342 343 344 343 342 343 344 346 346 347 348 350 352 352 352 352 351 350 347 346 344 344 344 345 346 347 347 346 346 346 346 346 346 344 343 340 334 328 325 326 329 333 336 336 337 336 335 336 337 336 334 336 336 333 330 328
352 352 351 352 353 352 352 352 352 351 352 351 351 350 349 348 347 345 343 341 340 341 341 340 339 340 340 341 341 341 341 342 343 343 343 344 346 348 348 349 351 352 352 352 352 351 351 349 347 345 345 345 345 346 347 346 346 345 346 346 346 345 342 336 330 328 329 330 330 332 335 336 337 338 338 338 338 337 335 335 336 336 332 330 328
351 351 351 351 352 352 352 351 351 351 351 352 351 351 351 350 349 347 344 342 340 339 340 340 339 339 340 341 340 341 341 342 344 345 345 346 346 347 348 348 350 351 351 351 351 351 350 349 347 346 346 345 345 346 346 346 345 345 345 345 345 342 335 328 326 331 335 336 335 336 337 337 338 338 338 338 338 336 335 335 336 335 331 329 328
351 351 350 351 351 351 351 351 351 351 351 351 351 350 350 350 350 348 345 343 341 340 340 341 341 340 341 343 344 345 345 345 346 346 345 346 347 346 346 347 348 349 350 349 350 351 350 349 347 347 347 346 345 345 345 345 343 343 343 343 343 337 328 326 329 333 337 338 337 337 337 337 337 338 338 337 337 337 336 336 336 334 331 329 327
350 349 348 349 350 351 351 351 351 351 351 350 350 350 349 350 350 350 347 346 344 342 341 341 341 341 341 343 345 346 346 344 343 343 344 345 346 346 345 344 345 346 347 347 349 350 350 349 349 349 348 346 345 344 344 343 341 341 340 339 337 330 326 330 331 333 336 337 337 337 337 337 337 338 338 336 335 337 337 337 336 333 330 329 327
349 348 347 348 349 350 351 351 350 351 350 350 349 349 350 350 350 350 349 348 346 345 344 343 343 342 341 341 341 342 342 340 339 340 342 343 345 346 345 344 342 342 344 345 348 349 350 351 350 350 349 346 344 343 342 339 338 338 336 332 329 326 328 332 333 332 334 335 335 336 336 337 337 338 337 335 334 336 337 337 335 332 330 329 327
349 348 348 347 348 349 349 350 350 350 350 350 349 349 350 350 350 350 350 349 348 347 346 346 346 346 344 342 340 339 338 337 337 339 340 343 345 345 344 342 341 341 342 345 348 350 351 351 351 350 348 346 343 341 339 336 335 335 332 327 325 326 329 333 334 332 332 333 334 335 335 336 337 338 337 335 333 335 336 335 334 332 330 328 327
348 347 347 347 347 348 348 348 348 348 349 349 349 349 349 350 350 349 350 350 350 349 347 346 347 348 347 345 343 341 338 337 337 338 339 342 343 342 341 340 340 340 341 346 350 351 352 352 351 349 348 346 343 339 336 334 333 333 330 326 324 327 329 331 334 333 331 330 331 333 334 335 337 338 337 335 333 333 334 334 332 331 330 328 327
347 347 346 346 345 346 346 347 347 348 349 349 348 349 349 350 350 350 350 350 350 350 349 349 348 349 350 349 347 345 343 341 339 339 339 339 340 339 339 338 339 341 343 347 351 352 352 352 351 349 347 346 342 338 334 331 332 331 329 328 327 327 329 331 333 334 332 330 329 330 332 334 337 337 337 336 335 334 333 332 331 331 330 329 328
346 346 346 346 345 346 346 347 347 348 349 349 348 349 350 350 350 350 350 349 350 350 350 350 350 350 350 349 349 348 347 346 344 341 340 339 339 337 337 338 341 343 345 349 351 352 352 351 350 348 346 344 340 336 332 328 329 329 328 331 331 329 329 331 333 335 334 332 330 328 329 333 336 336 336 336 335 334 333 332 331 331 331 330 328
346 346 346 346 346 347 348 348 348 348 348 349 349 349 350 350 350 350 350 350 350 350 350 350 350 350 350 350 349 349 349 348 346 343 341 339 338 337 337 340 344 346 347 350 351 351 351 350 349 347 345 342 338 334 329 327 328 328 327 331 333 332 332 331 332 334 334 333 332 330 328 330 333 334 334 335 335 334 333 333 332 331 331 330 329
346 346 346 346 346 347 347 348 348 348 348 349 349 349 349 350 350 350 350 350 350 350 350 350 350 350 350 350 349 349 349 349 348 344 341 339 338 337 337 339 344 346 346 346 348 349 349 348 345 344 342 339 336 332 327 327 328 328 327 330 331 332 332 331 331 332 332 331 331 330 329 329 330 331 332 333 334 333 332 332 331 330 331 330 330
345 346 346 346 346 346 347 347 347 348 348 348 348 349 349 349 350 350 350 350 350 350 350 349 350 350 350 350 349 349 349 348 348 346 342 339 337 337 337 339 342 344 343 342 343 345 346 345 341 339 338 337 335 330 327 327 328 328 329 329 329 330 332 332 329 327 329 330 330 329 329 329 330 330 330 331 333 332 330 331 330 330 330 331 331
343 345 345 346 345 346 347 346 347 347 347 348 348 348 349 349 350 350 350 350 350 350 350 349 350 350 350 350 350 349 348 347 347 347 345 341 337 337 338 340 342 342 342 341 342 343 344 343 340 337 337 337 335 331 328 328 328 328 330 330 329 331 333 333 330 326 324 326 329 329 328 329 330 331 331 331 332 331 330 330 330 330 330 330 331
341 343 344 345 345 346 346 346 347 347 347 348 348 348 349 349 350 350 350 350 350 350 350 349 349 350 351 351 350 350 348 347 346 346 346 344 340 337 338 341 342 342 343 342 342 343 344 343 339 336 336 337 337 334 330 328 328 328 330 330 330 330 331 332 331 327 321 321 324 327 328 329 330 333 333 332 331 331 330 330 330 330 329 329 330
339 342 342 344 345 345 346 346 346 347 347 348 348 348 348 348 349 350 350 350 350 350 350 349 349 350 350 351 351 350 349 348 346 344 344 345 343 339 338 341 343 343 343 343 343 343 344 343 340 338 337 337 338 336 331 329 328 328 328 329 328 328 329 330 330 327 321 319 320 324 328 329 329 332 333 332 331 331 330 330 330 330 330 330 330
338 340 341 342 344 344 345 346 345 346 346 346 347 347 348 348 348 349 350 350 350 350 350 350 349 350 350 350 350 349 348 348 347 345 343 344 344 341 339 341 343 344 344 344 344 344 344 343 342 340 338 337 339 337 332 330 329 328 327 327 327 328 328 328 327 326 322 320 318 321 327 328 327 329 331 331 331 332 332 331 331 331 331 331 331
338 339 340 340 342 343 344 344 345 345 345 345 346 347 348 348 348 349 349 349 350 349 350 350 350 350 350 349 349 349 348 348 347 346 342 342 342 341 339 340 342 344 344 344 344 344 344 344 342 341 339 338 339 338 334 331 329 328 326 326 327 328 329 327 326 324 323 321 319 320 324 328 328 328 331 333 333 333 333 333 332 332 332 332 332
338 339 339 340 341 342 342 343 343 345 345 345 346 347 349 349 349 350 350 350 350 350 350 350 350 350 350 350 349 349 348 348 347 346 342 339 340 341 340 339 341 343 344 344 345 344 344 343 342 341 339 338 340 341 338 333 331 329 327 325 326 328 328 326 325 324 323 322 321 320 321 325 328 330 332 334 335 334 334 334 333 333 333 333 333
338 339 339 339 340 340 341 342 342 343 344 345 347 348 348 349 349 350 350 351 351 351 350 350 350 351 351 350 349 349 349 348 348 347 343 337 337 340 340 339 340 341 343 344 344 344 344 343 342 340 338 338 339 342 340 337 333 331 329 326 326 327 326 324 324 323 323 322 322 321 320 321 325 330 333 334 335 335 333 333 333 333 333 333 332
339 339 339 339 340 340 341 341 342 344 345 346 347 347 348 349 350 350 351 351 351 351 351 351 351 350 351 351 350 350 350 349 349 348 344 337 335 338 339 339 340 340 341 342 343 343 343 343 343 341 339 338 338 341 342 339 335 333 331 328 325 324 322 322 322 322 323 324 323 322 322 322 324 329 332 334 335 334 333 334 333 333 333 332 332
340 340 340 340 340 340 340 341 342 343 345 346 346 347 348 349 349 350 351 351 351 351 351 351 351 351 351 351 351 350 350 350 349 348 345 338 334 336 338 339 339 339 339 341 342 343 342 343 343 342 340 338 338 341 343 341 338 336 334 330 326 323 321 320 320 320 322 324 325 324 323 323 325 328 332 334 334 334 334 335 335 334 333 333 333
342 340 340 341 340 340 340 341 342 342 344 345 346 347 348 348 350 350 350 350 351 352 352 351 351 351 351 351 351 351 351 350 349 348 345 340 334 334 337 338 339 338 339 340 341 342 342 342 343 342 340 339 339 341 343 343 341 338 337 335 332 328 324 321 320 319 320 322 324 325 324 324 326 328 330 332 333 334 334 335 335 335 334 334 334
342 341 342 342 341 342 341 341 342 342 343 344 345 346 348 348 350 349 349 350 351 352 352 352 352 352 351 351 351 351 351 351 350 348 346 341 337 334 335 337 339 339 339 339 340 342 342 342 342 342 341 340 339 341 342 344 343 341 339 339 338 337 333 328 324 321 320 320 321 322 323 324 325 326 327 329 332 334 335 335 336 335 335 334 333
342 342 342 342 342 342 342 342 342 342 343 344 344 346 347 348 349 349 350 350 351 352 352 352 353 352 352 352 351 352 352 351 350 349 347 344 340 336 334 335 337 338 339 339 339 341 341 341 341 342 342 341 341 341 342 343 344 343 341 340 340 341 340 337 333 328 324 322 320 320 321 323 324 324 325 327 330 334 335 335 336 335 334 333 333
342 343 342 343 343 342 343 343 343 343 343 344 344 345 346 348 348 349 350 350 351 352 352 352 353 352 352 352 351 352 352 352 351 349 348 346 343 339 335 334 335 337 338 339 339 339 340 341 341 341 343 343 342 341 341 342 343 344 343 342 341 342 343 343 341 337 333 329 326 322 320 320 321 323 324 326 329 332 334 334 335 334 334 333 332
341 341 342 343 343 343 343 343 343 344 344 344 344 345 346 347 348 349 350 351 352 352 352 352 352 353 353 352 352 352 352 352 351 350 350 349 347 343 338 335 334 335 337 338 338 339 340 341 341 341 342 344 344 342 341 342 343 344 345 344 343 343 344 344 344 343 341 338 335 331 326 321 319 320 323 325 328 332 332 333 334 334 334 333 332
340 340 341 343 343 344 344 343 344 344 344 345 345 345 346 347 348 349 350 351 352 352 351 352 352 353 352 352 352 353 353 352 352 352 351 350 349 346 343 339 334 333 334 336 338 339 340 341 341 342 343 343 343 342 341 341 343 344 346 346 345 345 345 346 346 345 345 344 342 340 335 329 322 319 321 324 328 331 332 332 333 334 334 333 331
339 340 341 341 342 344 344 344 345 344 345 345 345 345 346 347 348 350 350 350 351 352 351 351 352 352 351 352 353 353 353 353 353 352 351 351 350 349 348 343 336 332 332 334 337 339 341 342 342 343 343 343 342 341 341 341 342 344 346 346 347 346 347 347 346 346 346 345 345 343 342 338 329 321 320 324 327 331 333 333 333 334 334 333 332
338 340 341 341 342 343 344 344 345 344 345 346 346 346 347 347 348 349 350 350 351 352 352 351 351 351 352 353 353 353 354 354 353 353 352 352 352 351 350 347 340 335 333 333 335 338 340 342 343 343 343 342 341 341 341 341 342 344 345 346 347 348 348 348 347 347 346 346 346 345 344 342 335 325 321 323 326 330 333 334 334 335 334 333 332
338 339 340 342 342 342 344 344 344 345 345 345 346 347 347 348 348 348 349 350 351 352 352 351 351 351 352 353 353 354 354 354 354 354 353 353 353 352 351 349 345 339 335 333 334 336 339 341 343 344 344 342 341 340 341 342 343 344 345 346 347 347 348 348 347 347 347 346 346 346 345 344 339 330 324 323 326 330 333 334 335 335 335 333 331
338 339 340 342 342 342 343 344 344 345 345 345 345 346 347 348 348 348 350 351 351 352 352 352 352 352 353 354 354 354 354 353 354 354 354 354 354 354 353 350 346 342 337 334 334 334 337 340 342 343 343 341 340 341 342 343 343 344 345 346 347 347 347 347 348 348 348 347 347 347 346 345 342 335 327 324 327 332 334 335 336 335 332 331 330
337 339 340 341 342 343 343 343 344 344 344 345 345 345 346 346 347 348 350 351 351 352 352 352 353 353 353 354 354 354 354 354 354 355 355 355 355 355 353 351 348 345 341 336 333 334 335 337 339 340 340 340 341 342 343 343 343 344 345 346 347 347 348 349 349 350 350 349 349 349 347 346 342 337 331 327 327 330 333 334 335 333 329 327 326
337 339 340 340 342 343 343 344 344 344 345 345 346 346 346 346 348 349 349 350 351 351 352 353 353 354 354 354 354 354 354 355 355 356 356 356 355 355 354 352 350 346 341 336 335 334 334 334 335 337 339 340 341 342 344 343 344 345 346 347 348 349 350 351 351 351 351 351 350 349 348 346 341 337 334 330 327 328 329 330 331 328 325 324 324
340 339 339 340 341 341 343 344 344 345 345 346 346 346 346 347 348 349 349 350 351 351 352 353 354 355 355 354 354 354 354 356 356 357 357 356 356 355 354 353 351 347 344 341 339 337 335 335 335 336 338 340 341 343 344 344 345 347 347 349 351 351 352 352 352 353 352 351 350 348 347 344 340 338 336 331 328 328 327 327 327 325 323 323 323
342 341 341 341 340 340 341 342 344 345 345 345 346 345 347 347 347 348 349 349 351 351 352 353 354 354 355 355 355 354 355 357 357 357 357 357 356 356 355 354 352 350 348 345 341 339 338 337 336 337 339 341 342 343 344 345 346 348 349 352 353 353 353 354 354 354 353 352 349 348 346 343 339 338 335 332 329 328 327 329 330 327 323 322 323
340 341 342 341 342 343 342 342 343 344 344 345 345 345 346 347 347 347 349 350 351 351 351 351 353 353 353 354 355 356 356 357 357 357 357 357 356 355 355 354 353 351 349 346 343 342 339 337 337 338 339 341 343 344 345 346 348 349 352 354 354 355 355 355 354 353 352 351 349 348 346 342 339 338 335 333 330 329 331 333 331 325 322 322 323
339 341 342 342 344 344 343 344 344 343 344 345 344 345 347 347 347 346 348 349 350 350 351 351 351 352 352 354 355 356 357 357 357 357 356 356 356 355 355 355 353 353 352 350 348 345 341 338 338 339 340 343 345 346 347 349 350 352 354 356 356 356 355 354 353 352 351 349 348 347 345 341 339 338 335 333 333 333 333 332 326 322 322 323 323
339 340 342 343 346 346 345 345 344 343 345 344 345 347 347 347 347 347 347 348 347 347 348 349 350 351 353 354 355 356 356 356 356 356 356 356 356 355 356 355 355 355 354 352 350 347 345 342 341 341 343 346 347 348 350 352 353 355 356 356 356 356 354 352 350 349 348 347 345 345 344 341 339 339 336 335 334 333 330 325 322 322 323 323 322
342 341 339 339 342 344 347 347 346 345 345 344 345 346 347 347 348 348 346 343 342 343 345 346 350 352 353 355 356 355 356 355 355 355 356 356 356 356 356 355 355 355 354 353 352 351 349 347 345 346 348 349 350 352 353 354 356 357 357 356 356 354 350 348 348 348 347 345 342 343 343 340 339 339 335 331 330 328 325 322 322 323 323 322 320
347 346 342 338 337 339 341 344 346 347 347 347 347 346 346 348 349 348 345 340 341 343 343 345 350 352 353 355 355 356 356 356 356 356 356 356 356 356 356 355 356 355 355 354 354 353 353 351 350 351 352 352 354 355 355 357 357 357 357 355 353 349 346 345 346 346 345 344 343 343 341 339 339 336 330 326 326 326 325 324 324 324 322 320 320
347 347 347 345 343 340 339 340 341 343 345 347 349 350 350 349 349 348 347 347 348 348 348 350 352 353 354 355 355 356 356 356 356 356 356 357 357 356 357 357 356 356 356 357 356 355 354 354 354 354 355 356 357 357 357 357 357 356 355 351 348 345 343 343 344 344 344 343 343 342 340 339 337 331 325 325 327 326 325 325 324 322 321 321 323
347 347 347 348 348 346 344 343 343 344 345 346 348 351 353 353 352 350 349 350 351 351 352 353 354 354 355 355 355 356 356 356 357 357 357 358 358 357 358 358 357 358 358 357 357 357 356 357 357 357 357 357 358 357 357 357 356 354 351 348 345 343 343 342 342 343 342 342 342 341 339 337 332 326 325 326 326 325 324 323 322 321 323 324 324
348 347 347 348 348 347 345 345 343 343 345 349 352 353 354 353 354 354 354 353 353 353 354 354 355 355 355 355 355 355 355 356 357 357 357 358 358 358 359 358 358 358 358 357 358 357 357 358 358 357 358 358 358 357 357 356 354 352 349 346 344 344 344 343 342 341 340 341 341 339 335 331 327 324 324 324 323 323 322 322 323 325 325 323 321
348 348 348 348 347 348 348 348 347 344 342 344 350 355 357 357 356 356 357 357 356 356 355 354 355 355 354 355 355 354 354 355 356 357 357 357 358 359 359 358 358 357 358 358 358 357 357 357 356 355 356 357 358 357 356 355 353 349 346 344 344 344 344 343 341 340 340 340 338 334 329 325 323 322 322 323 322 323 323 325 326 325 322 320 320
346 347 347 346 347 347 348 349 350 350 349 347 347 352 358 361 361 360 359 358 359 359 358 358 357 357 356 356 355 354 355 354 354 355 357 357 358 359 358 358 358 357 357 358 357 357 357 355 353 355 356 357 357 357 356 355 351 346 343 343 344 344 343 341 339 340 340 338 333 328 324 322 322 322 323 323 323 324 326 327 325 322 320 320 320
344 345 344 345 346 345 346 347 347 348 350 351 352 353 357 360 363 363 362 362 361 360 360 360 359 359 358 357 356 355 354 354 354 355 356 357 358 359 359 359 357 357 358 358 357 358 356 351 349 354 357 356 356 357 356 352 345 340 340 342 343 342 341 339 339 339 339 335 329 324 323 322 323 323 323 322 323 326 328 326 323 321 321 321 320
344 344 345 345 346 347 348 349 349 348 348 349 351 353 356 358 362 363 363 363 362 362 362 362 360 361 360 359 357 356 355 354 353 354 355 357 358 358 358 359 358 356 356 356 356 357 354 350 349 352 354 356 358 357 351 343 337 337 339 341 341 340 339 338 339 339 338 332 326 323 322 323 322 322 321 322 325 328 328 324 321 321 321 320 320
344 344 345 346 348 349 350 352 352 352 352 351 351 352 353 355 356 357 358 358 359 359 361 362 362 362 361 360 360 358 356 355 354 354 354 357 358 359 359 359 358 358 358 358 357 354 353 353 354 355 356 356 353 347 340 336 337 340 340 340 339 338 337 337 337 336 333 327 323 323 323 322 322 321 321 323 326 327 325 322 321 321 321 321 321
343 344 345 346 347 348 350 352 353 352 352 353 353 353 354 354 355 355 355 356 356 358 359 361 362 362 362 362 361 360 358 356 354 354 355 356 358 359 359 359 358 357 358 358 357 355 354 355 356 354 350 345 340 337 336 336 338 340 339 338 336 335 335 334 332 330 326 324 323 323 323 321 321 320 322 326 327 325 322 321 322 322 321 321 321
Wind_Speed
46 44 43 41 41 40 39 38 36 35 34 34 35 36 36 35 36 36 35 34 34 34 34 33 32 30 30 30 30 29 26 25 25 24 24 22 21 19 18 17 16 16 14 14 14 14 14 13 13 14 14 14 14 14 13 13 12 11 11 10 10 10 12 14 15 15 14 12 12 12 11 9 7 6 6 8 9 9 8 7 6 4 1 2 4
41 42 43 41 41 41 40 39 38 38 37 36 36 35 35 35 36 37 36 36 36 35 35 34 34 33 32 31 30 29 28 27 26 25 24 22 21 20 19 19 17 17 16 15 15 15 15 15 15 15 14 14 13 14 14 14 13 12 12 11 11 12 12 14 15 14 12 11 11 11 10 9 8 6 6 7 9 10 10 9 7 5 3 1 3
38 42 44 43 43 43 42 42 41 40 39 38 37 35 35 35 35 36 36 38 37 37 36 35 35 33 32 31 30 29 28 27 26 25 23 22 21 21 20 20 19 18 17 16 16 16 17 16 16 15 15 14 14 15 15 14 13 12 12 11 12 12 13 14 14 12 10 10 11 10 10 9 9 8 8 8 8 10 11 11 9 6 4 2 1
41 43 45 45 44 44 45 45 44 43 41 40 39 38 37 36 36 35 36 38 38 38 38 36 34 34 33 31 29 28 27 26 25 25 25 24 23 22 21 21 20 19 18 17 17 17 17 17 16 16 15 14 14 15 15 13 13 12 12 12 13 13 13 13 12 12 11 10 10 10 10 11 11 10 10 10 8 9 11 11 10 7 5 3 0
46 47 47 47 47 47 48 48 47 46 45 44 42 41 40 39 37 36 36 37 38 39 38 37 35 35 34 32 30 29 28 27 28 29 28 27 25 24 23 22 20 19 19 18 18 18 18 18 17 16 16 15 15 15 14 13 13 13 12 13 13 14 14 14 14 14 13 10 10 10 9 10 11 11 11 10 9 10 11 12 11 9 6 4 1
48 50 50 49 49 50 50 50 49 49 48 46 44 43 42 41 39 37 36 36 37 37 38 38 37 37 37 36 34 33 32 32 32 32 30 28 27 25 23 22 21 20 20 19 19 19 19 19 18 17 16 16 15 15 14 15 14 13 13 14 14 14 14 15 15 15 15 13 12 11 10 10 11 12 12 10 11 12 14 16 14 11 8 6 3
46 47 50 51 52 52 51 51 52 51 50 48 47 46 44 43 41 39 38 37 36 36 36 38 38 38 38 38 37 36 35 34 33 32 30 28 27 25 24 23 22 21 20 20 20 20 20 19 19 18 17 16 16 15 15 16 15 14 14 14 15 16 17 16 14 15 16 15 14 13 12 11 10 12 13 11 12 15 17 18 16 13 10 8 5
46 46 48 51 52 53 54 54 54 53 52 51 50 48 47 45 43 41 40 39 38 36 36 38 38 38 38 38 38 37 36 33 32 31 30 29 28 26 25 25 23 22 21 21 21 20 20 20 19 19 18 17 16 16 16 15 15 14 14 14 15 17 18 15 14 16 16 16 16 15 14 13 11 11 14 13 12 15 19 19 17 15 12 9 7
49 49 50 52 53 53 54 55 55 55 53 53 52 50 49 48 45 43 42 42 40 38 38 38 38 38 38 38 38 38 36 34 32 31 30 30 29 27 26 26 25 24 23 22 21 20 20 20 20 19 18 17 17 17 16 15 15 15 14 13 14 17 17 15 15 17 15 14 16 17 16 15 13 12 14 14 13 14 19 21 19 17 15 12 9
48 50 52 54 54 54 54 54 55 56 55 54 53 52 51 50 48 46 45 43 42 41 40 39 39 39 39 38 38 38 37 35 34 33 32 31 30 29 27 26 26 25 24 23 22 21 21 20 20 20 18 18 18 17 17 16 16 16 15 13 13 15 16 16 15 16 15 13 14 16 17 17 16 15 15 15 15 14 17 20 20 19 17 13 11
48 50 51 53 54 54 54 55 56 56 55 55 54 53 53 52 51 49 47 45 44 43 41 40 40 41 41 40 39 38 37 36 36 36 35 33 32 30 28 27 26 25 24 24 23 22 22 21 20 19 19 19 18 18 17 16 16 16 14 13 12 13 14 15 15 16 16 15 14 15 18 19 19 17 16 16 16 15 16 18 19 19 18 15 12
49 49 50 51 52 52 52 54 55 55 55 54 54 54 54 53 52 51 49 48 46 44 43 42 42 42 43 42 40 39 38 37 37 36 36 35 33 31 30 28 26 25 25 25 25 24 23 23 21 20 20 20 19 18 17 16 16 15 14 13 13 13 12 14 16 17 17 17 15 15 17 19 20 19 17 16 16 15 15 15 16 17 18 17 14
49 50 51 51 51 52 53 54 55 55 55 55 55 54 54 54 54 53 52 50 48 46 45 44 44 44 44 43 42 41 40 39 37 35 35 35 34 32 32 30 28 27 27 26 26 25 24 23 22 21 21 20 19 18 17 16 16 15 14 14 14 14 13 14 16 18 19 18 16 16 17 18 20 20 18 17 17 15 13 13 13 15 16 16 14
49 50 51 51 53 54 55 56 56 56 57 57 56 55 55 55 55 54 53 51 50 49 47 46 46 45 44 44 43 42 42 41 40 37 35 35 35 34 32 31 29 28 27 26 25 25 24 22 21 21 20 19 19 18 17 16 16 16 15 14 15 14 13 13 15 18 20 20 18 18 18 18 19 20 19 18 18 17 14 12 12 14 14 13 13
49 50 51 53 55 56 56 57 57 58 58 58 58 57 56 56 56 56 55 53 52 51 49 48 47 46 45 45 44 43 42 42 41 39 36 35 35 35 33 32 30 29 27 25 25 25 24 22 21 20 19 19 20 19 17 16 16 17 16 15 16 15 14 13 15 17 20 21 21 19 19 18 18 19 20 19 19 19 17 14 13 14 14 14 14
49 50 51 53 55 56 57 57 57 58 58 58 58 58 58 57 56 56 56 55 54 52 51 49 48 47 46 46 45 44 43 42 41 40 38 36 36 36 34 32 30 29 27 26 25 25 24 23 22 21 20 20 20 19 18 17 18 18 18 17 17 17 16 15 15 17 19 20 21 21 20 19 19 20 21 20 19 18 17 16 15 16 15 15 15
49 51 53 54 55 56 57 57 57 57 58 58 59 60 59 58 57 57 56 56 55 54 52 50 49 48 47 47 46 45 44 43 41 40 39 37 37 37 36 33 31 30 28 27 26 25 24 24 23 22 21 21 21 19 18 18 20 20 19 19 19 18 17 17 17 17 18 19 21 23 22 21 20 21 22 20 20 18 16 16 16 16 16 16 16
50 52 54 55 56 56 57 58 58 58 59 59 60 60 60 59 58 58 57 57 56 55 53 52 50 49 48 47 47 46 45 43 42 39 38 38 38 38 38 36 34 31 30 28 28 27 25 25 25 24 23 22 21 20 19 20 22 21 20 20 20 19 19 18 18 19 19 19 21 23 24 23 22 22 22 21 20 19 17 17 17 17 17 16 16
47 49 52 55 56 56 57 58 58 58 59 60 60 60 59 59 59 58 58 57 56 55 54 53 52 50 48 47 46 46 45 43 42 40 39 38 39 39 39 38 36 33 32 30 29 28 27 26 26 25 24 23 22 21 20 21 23 23 22 22 21 22 22 20 19 19 20 20 21 23 25 26 24 23 23 21 20 19 18 17 18 18 18 18 17
47 50 52 55 57 57 58 59 59 59 59 59 58 58 58 59 59 59 58 57 56 56 55 54 53 52 50 47 46 46 45 44 42 41 40 39 39 39 40 40 38 36 34 32 31 30 28 28 28 27 26 25 24 23 21 21 23 24 24 23 23 23 23 22 20 20 21 21 22 23 25 26 27 26 25 22 20 19 19 18 19 19 19 19 18
49 51 53 56 57 57 58 59 59 59 58 57 56 56 58 58 58 58 58 57 57 57 56 55 54 52 51 49 47 46 45 45 43 42 41 40 40 40 40 41 40 38 36 34 33 32 30 29 29 28 28 26 26 25 23 23 24 25 25 24 23 24 24 23 22 22 22 22 22 23 24 25 27 28 27 25 22 20 20 20 19 20 19 19 19
50 51 53 55 57 57 57 58 57 55 54 54 54 55 56 57 58 58 57 58 58 58 57 56 53 52 51 49 47 45 45 45 44 43 41 40 40 40 40 41 42 41 38 36 34 33 31 30 30 30 29 28 27 27 25 24 24 25 25 25 24 24 24 24 25 25 25 24 23 23 23 24 27 29 28 27 24 22 21 20 20 20 19 18 18
49 50 52 54 56 57 57 56 54 53 53 53 54 55 56 57 58 58 58 58 58 58 57 56 54 52 51 49 47 46 45 45 44 44 42 40 41 41 41 42 42 42 41 38 36 34 33 31 31 31 30 29 29 29 28 27 26 25 25 25 25 25 25 25 25 25 26 26 25 24 23 24 27 28 29 28 25 23 23 22 20 19 19 18 18
46 48 50 52 54 54 53 52 52 52 52 53 54 55 56 57 57 58 59 59 58 57 56 56 55 53 50 49 48 47 46 46 45 45 42 40 41 41 41 42 42 42 42 40 38 36 34 33 32 32 32 31 30 30 30 29 27 26 25 25 25 26 26 26 25 25 26 27 27 26 25 24 26 28 29 29 27 25 23 22 21 20 20 19 19
43 45 47 49 50 49 49 51 51 52 52 53 54 55 55 56 56 58 58 58 57 56 56 56 55 54 52 50 49 47 47 47 46 45 43 40 40 41 42 42 42 43 43 42 40 38 37 36 34 34 33 33 32 31 31 30 29 28 27 26 26 27 27 27 26 26 26 27 28 28 27 26 26 27 29 30 29 27 25 23 22 21 21 21 20
42 43 45 48 48 47 49 51 53 53 53 54 55 55 55 55 56 57 57 57 57 56 55 55 55 55 53 52 50 49 48 47 46 46 44 40 39 41 42 43 43 42 42 42 42 40 39 37 36 35 34 34 33 33 32 32 30 29 29 28 29 28 28 28 28 27 27 27 28 28 28 28 28 27 28 29 30 29 27 25 24 23 21 21 21
43 44 46 47 47 47 49 52 54 54 54 55 55 55 55 55 56 56 56 56 56 56 55 55 55 55 55 53 51 49 48 47 46 45 44 42 40 40 41 42 43 42 42 43 42 42 40 39 38 37 36 35 35 34 34 33 32 31 31 31 31 31 29 29 29 29 29 29 29 29 28 29 30 29 28 28 28 28 27 27 25 23 21 20 21
39 41 42 44 47 48 50 52 53 54 54 54 54 55 55 56 56 55 55 55 55 55 55 55 55 55 55 54 52 49 48 47 46 45 44 43 42 41 40 41 42 42 43 42 42 42 41 40 39 39 38 37 36 35 35 35 34 34 33 33 33 33 31 30 30 30 30 30 31 30 29 28 29 30 30 29 28 27 27 26 24 22 20 21 21
38 38 40 43 48 50 51 52 53 53 53 53 53 54 54 54 54 54 54 55 55 55 55 55 55 56 55 54 52 50 49 48 47 46 45 44 43 42 41 41 41 42 42 42 42 42 42 42 41 40 39 38 37 37 37 36 36 35 35 34 35 34 33 32 31 31 31 32 33 33 30 28 27 29 30 30 28 26 26 25 23 21 21 21 21
40 42 43 46 49 51 52 53 53 53 53 53 53 54 54 54 54 53 54 55 55 55 55 56 56 56 55 54 52 51 50 49 49 48 46 44 44 43 43 42 41 41 42 41 42 42 43 43 42 41 40 39 38 38 37 37 37 36 35 35 35 35 33 32 32 32 33 34 34 35 33 29 27 28 30 30 28 26 25 24 23 22 21 21 20
39 42 45 47 49 51 52 52 53 54 54 54 55 54 54 54 54 54 54 55 54 54 55 56 56 55 54 54 53 52 51 50 49 49 47 46 45 44 44 43 42 42 41 41 42 43 44 44 43 42 41 40 39 38 38 37 36 36 36 36 35 34 33 33 33 33 35 34 34 36 35 31 28 28 28 28 27 27 26 24 23 22 21 20 21
38 40 42 45 47 49 50 52 53 54 54 54 54 54 53 53 53 54 54 54 54 54 55 56 56 55 54 54 53 52 51 51 50 49 48 47 46 45 45 44 43 42 42 42 43 43 44 44 43 43 42 41 40 39 38 37 36 35 35 35 35 34 33 33 33 34 36 34 33 36 37 33 30 28 27 27 27 27 26 24 24 23 21 21 21
38 39 40 43 46 47 50 52 53 54 55 55 54 53 53 53 53 53 53 52 53 54 55 55 55 55 55 54 53 52 52 51 50 49 49 48 47 46 45 44 43 43 43 43 43 43 44 44 44 43 42 41 40 40 39 37 35 34 34 34 34 33 32 32 32 34 35 33 31 33 34 33 31 28 27 26 26 26 25 25 24 23 21 20 20
36 37 39 42 43 45 47 50 52 54 55 55 54 53 53 53 52 52 51 52 53 54 55 55 55 55 54 54 53 52 51 51 50 49 49 49 48 47 46 45 44 44 44 44 45 45 44 44 44 43 42 41 40 40 38 36 34 33 32 31 31 31 31 32 32 34 34 31 30 32 34 34 32 29 26 25 26 26 25 25 24 22 20 19 18
33 35 38 40 41 43 45 47 49 51 52 52 51 51 51 51 50 50 51 52 53 53 54 54 55 55 54 54 53 52 52 51 51 50 49 49 49 48 47 46 46 45 45 45 45 45 45 44 43 42 41 40 39 39 37 35 33 31 29 29 29 30 31 32 33 33 33 30 29 32 34 34 30 26 24 24 24 25 24 25 24 22 19 17 17
30 33 36 36 36 40 43 46 49 50 49 49 48 48 49 49 49 50 51 51 52 53 53 53 54 54 54 54 53 52 52 51 50 50 50 50 49 49 48 47 47 47 46 46 46 46 45 44 43 41 40 40 38 37 35 33 32 29 28 28 29 30 32 33 32 32 31 31 31 32 35 33 28 23 23 22 22 23 23 24 23 20 18 17 17
22 27 30 31 31 34 38 43 48 49 48 46 44 45 48 49 49 49 49 50 51 52 52 53 53 54 54 54 53 53 52 51 50 50 50 50 50 49 49 49 49 49 48 48 47 46 45 43 42 40 40 39 37 34 32 31 30 27 27 29 30 30 31 31 29 28 29 30 29 30 33 32 26 22 21 20 21 22 22 22 21 19 18 16 14
15 18 21 24 26 29 33 37 41 43 44 43 42 43 47 48 48 47 47 48 50 51 52 52 53 53 53 53 53 53 52 51 51 51 50 50 49 49 49 49 49 50 49 48 47 45 43 42 41 40 38 37 34 31 30 30 28 26 28 29 29 29 29 28 27 27 27 27 26 28 32 30 23 19 19 19 20 22 22 22 20 19 17 14 13
11 15 19 20 22 24 26 30 34 37 39 40 42 44 46 47 46 45 45 47 49 50 51 51 52 52 52 53 53 53 53 52 51 51 50 49 49 49 49 49 49 50 48 47 45 44 43 41 40 38 36 34 32 30 29 28 27 28 30 29 28 28 27 26 26 25 25 25 25 28 32 28 20 18 19 20 21 23 22 21 20 19 16 14 13
3 9 14 17 19 21 23 26 31 34 36 40 42 44 45 47 46 45 45 46 46 47 47 48 49 50 51 52 53 53 53 53 52 51 50 49 48 48 48 49 49 49 47 45 44 43 42 41 38 36 35 33 31 29 28 28 28 30 30 28 27 27 26 25 24 23 23 22 21 26 30 25 19 19 21 21 22 23 21 20 20 19 17 15 13
3 1 6 9 13 17 21 24 27 30 34 37 39 41 43 45 45 46 46 46 44 43 44 45 47 49 50 52 53 54 54 53 52 51 50 49 48 48 48 48 48 47 46 44 43 43 41 39 37 35 33 31 30 29 27 28 30 29 28 26 26 24 23 22 21 20 21 20 20 26 29 23 19 19 19 19 19 20 19 19 19 18 17 14 13
5 3 2 5 8 11 14 17 20 24 28 31 33 36 39 41 42 45 47 46 44 44 44 45 47 49 50 52 53 54 54 53 52 52 51 50 49 49 48 47 46 46 45 44 43 42 41 39 36 34 33 31 30 29 28 28 29 28 26 25 23 21 21 20 19 19 20 21 24 28 24 18 17 17 16 16 16 17 18 18 18 17 16 14 14
6 6 4 3 4 6 9 11 14 19 23 26 27 30 33 36 40 43 45 45 45 45 45 46 48 49 50 52 53 53 54 53 53 53 52 51 50 49 47 47 46 45 45 44 43 42 40 39 37 35 33 31 30 29 28 28 27 26 24 22 21 20 20 19 19 19 19 21 24 23 18 16 16 15 14 14 16 17 17 17 16 15 15 14 13
6 6 7 6 4 3 4 7 10 13 17 21 24 25 28 32 36 39 42 45 45 45 45 46 48 49 50 52 52 52 52 52 53 53 52 50 49 48 47 46 46 45 44 43 42 41 39 38 36 34 32 30 29 29 28 27 26 24 22 21 22 21 21 20 20 19 19 19 19 18 17 17 15 14 13 15 16 17 17 16 15 15 14 12 10
4 4 5 6 6 6 5 5 6 7 9 12 16 20 24 28 32 35 40 43 44 43 43 45 46 48 50 51 51 51 51 51 51 51 51 50 49 48 48 47 46 46 46 45 43 42 40 36 31 28 28 29 29 29 28 27 26 24 23 23 23 22 22 22 20 18 17 16 15 16 17 16 15 15 15 16 17 16 16 14 14 13 11 9 8
4 4 4 5 6 7 7 6 7 7 7 8 10 13 18 22 25 29 33 37 40 41 42 42 44 46 48 50 50 50 50 50 50 51 52 53 52 51 51 51 50 49 48 48 46 43 38 32 26 24 28 31 31 30 30 28 26 24 24 25 24 23 23 22 20 18 16 14 15 17 17 17 17 17 17 16 16 15 14 13 12 10 8 8 8
6 7 7 7 7 7 7 7 7 7 7 9 10 11 14 16 19 23 27 32 35 38 40 41 42 43 45 47 49 50 50 51 51 52 53 53 54 55 55 54 54 53 51 49 46 41 36 32 28 29 32 32 32 32 31 29 27 26 26 26 25 25 24 23 21 20 18 18 19 19 20 20 19 18 17 16 15 14 13 12 10 8 8 8 8
10 10 10 10 10 9 9 9 8 8 8 9 11 12 15 17 18 20 23 26 29 32 35 38 40 41 43 45 47 48 49 49 49 50 52 54 55 56 57 57 56 55 54 51 45 40 37 35 32 33 34 34 34 34 32 29 28 27 27 28 27 26 25 24 23 22 21 21 22 23 23 22 19 18 18 16 14 13 12 11 9 9 9 9 9
12 11 9 9 9 9 9 9 8 8 8 9 11 13 15 17 19 21 22 23 25 27 30 34 38 41 43 44 44 46 47 48 49 50 52 54 56 57 58 59 58 56 54 51 46 41 39 36 33 33 34 34 34 33 30 27 26 25 26 27 27 27 26 25 25 24 23 23 24 25 23 22 20 19 18 16 13 12 12 11 10 10 10 10 10
10 9 7 6 7 7 7 7 6 6 6 7 10 12 13 15 16 18 19 21 23 25 27 31 35 38 40 42 44 46 48 50 53 54 55 55 56 57 57 57 56 52 48 44 41 37 35 34 33 31 29 25 23 24 24 24 24 24 25 25 25 25 25 25 26 25 24 25 25 25 23 22 20 19 17 15 13 13 12 11 10 10 11 11 12
10 8 6 5 5 6 7 6 6 7 7 7 8 10 12 13 14 14 15 17 20 22 25 29 33 36 39 42 45 48 51 53 55 57 60 60 58 56 54 53 51 47 42 37 33 29 29 31 30 27 23 20 17 17 19 22 24 24 23 22 23 23 24 25 26 26 25 25 25 24 23 21 19 17 16 15 14 13 12 11 11 11 12 13 14
Wind_Direction
203 201 201 204 207 210 212 214 216 216 218 219 218 218 216 215 215 214 214 213 212 211 210 208 208 208 208 210 213 214 215 215 217 220 221 222 223 225 228 232 238 240 242 242 240 240 240 243 246 249 253 256 260 260 256 257 259 258 251 246 240 223 214 218 223 234 249 248 231 221 213 206 220 242 228 217 217 223 232 236 239 249 308 31 46
203 201 202 203 207 209 212 214 215 216 218 219 220 219 219 219 218 218 216 215 214 213 213 210 209 210 211 212 214 216 216 217 220 221 222 223 224 227 229 232 235 235 237 238 238 239 240 243 247 250 254 258 260 255 252 255 258 257 252 243 229 212 208 218 228 238 242 229 212 209 208 206 216 221 199 197 208 217 226 233 236 245 274 345 59
202 202 202 203 206 208 211 213 216 218 219 221 221 220 220 220 221 221 220 218 216 215 215 214 212 212 215 216 217 218 219 221 224 226 226 226 227 228 229 231 231 232 234 235 237 238 242 247 250 253 256 258 256 250 250 255 255 254 246 233 220 212 215 224 229 226 215 204 202 206 206 204 204 199 184 187 205 216 224 229 230 239 257 249 74
200 202 202 203 205 208 210 213 216 217 218 220 220 220 221 221 221 221 222 221 218 215 216 216 215 215 217 220 221 222 223 224 227 229 229 228 228 228 228 228 229 232 234 236 237 238 242 247 251 254 257 258 253 249 251 253 252 248 237 226 219 221 227 223 211 201 193 190 198 200 199 198 193 189 189 193 206 214 221 227 229 236 246 241 217
199 200 201 203 204 207 211 213 214 215 217 219 220 221 222 222 222 222 222 222 220 217 216 217 217 217 218 219 221 224 225 226 227 227 226 226 226 226 226 226 227 230 232 234 236 238 242 246 251 254 256 255 252 250 250 247 245 240 233 230 228 230 227 211 197 194 191 191 201 201 197 197 194 190 192 199 208 209 214 221 225 230 233 237 227
201 200 201 202 205 208 211 212 213 214 217 221 222 223 223 223 222 222 223 223 222 220 217 216 217 218 218 218 219 220 221 223 224 224 223 223 225 225 226 227 227 228 230 233 235 238 242 245 249 253 253 251 249 248 244 241 240 236 234 235 232 228 217 204 198 197 195 197 206 210 205 202 201 198 196 198 203 207 212 213 217 226 224 226 214
204 203 202 202 205 207 209 211 213 215 219 222 223 223 223 223 222 222 223 224 224 222 218 216 216 218 220 221 222 221 222 222 223 225 225 226 227 228 228 229 229 231 232 234 236 238 241 245 248 251 250 246 245 244 241 240 239 235 235 235 232 222 209 204 200 198 200 202 209 215 214 213 214 210 204 200 196 201 208 210 214 220 219 219 211
204 205 203 203 205 206 209 211 213 217 219 220 220 222 223 223 224 224 224 224 223 222 220 217 216 217 220 223 225 226 227 226 225 225 227 229 231 231 231 232 234 235 235 235 236 237 240 243 246 248 245 241 242 242 241 240 236 232 231 228 223 215 210 208 202 201 203 205 211 218 219 222 228 218 209 209 204 198 202 207 213 215 216 218 209
205 206 205 205 206 208 210 212 214 217 218 218 219 222 222 222 223 224 225 225 223 221 221 221 220 220 221 222 225 228 230 230 230 229 229 230 232 232 233 235 237 238 237 235 233 235 240 242 245 246 242 240 242 242 239 237 233 231 229 221 212 209 211 212 207 207 209 210 214 217 219 222 225 220 209 210 214 206 203 207 212 214 214 216 211
208 208 207 207 208 210 212 213 215 217 217 218 220 220 221 221 221 223 224 225 225 223 222 222 222 222 224 224 226 228 230 231 233 233 232 232 232 233 234 235 237 236 235 233 231 235 239 241 243 242 240 241 242 241 238 232 228 228 224 214 207 208 213 215 213 214 217 219 218 215 216 218 218 218 210 206 211 213 211 212 215 217 217 216 216
210 210 210 210 211 211 212 213 215 216 216 217 218 218 219 219 220 222 223 225 226 225 224 224 223 223 225 228 228 229 230 231 232 232 233 232 232 232 232 232 232 232 231 230 230 233 238 240 240 238 238 240 240 240 238 230 225 224 216 207 207 211 215 221 223 221 220 225 226 219 216 218 220 222 218 213 212 213 214 215 217 221 224 225 227
210 210 211 211 211 212 211 213 214 215 214 215 216 217 217 218 220 221 222 223 225 226 226 225 225 224 226 229 231 232 232 232 233 232 232 230 229 229 229 229 227 226 226 227 229 231 235 239 238 236 236 236 237 239 234 225 221 220 214 209 212 215 217 225 231 230 228 228 231 229 222 219 222 225 227 225 222 223 222 218 216 220 224 228 233
210 211 211 211 211 211 211 213 214 214 214 215 216 216 217 218 219 220 222 223 224 226 227 227 226 226 227 229 231 233 234 235 236 235 233 231 228 227 228 227 224 222 224 227 229 230 234 238 238 235 234 233 234 236 229 220 218 217 214 213 217 218 220 226 232 235 238 237 236 236 232 226 222 222 226 225 226 231 230 223 216 216 220 224 227
211 211 211 211 211 211 212 213 214 214 215 215 216 216 216 217 218 220 221 223 224 225 227 228 228 228 229 230 231 233 234 235 237 237 235 233 230 228 228 227 226 225 227 231 232 232 235 239 239 234 232 231 231 230 225 220 219 217 214 214 218 220 222 230 235 237 238 239 239 237 237 234 224 220 222 223 226 230 231 228 218 213 217 225 229
212 212 212 213 213 213 213 213 214 215 215 215 215 216 216 217 217 218 220 221 223 224 226 227 229 230 230 231 232 233 234 236 237 237 237 236 233 230 229 227 228 230 232 235 236 236 238 238 236 232 230 229 229 227 223 221 221 217 213 216 222 223 225 232 239 239 236 236 236 236 238 237 230 223 223 224 226 229 231 235 233 225 224 229 235
211 212 213 214 215 214 214 214 215 215 215 215 215 215 216 217 217 218 219 221 222 224 226 227 229 230 231 232 233 234 235 235 236 238 238 237 236 233 231 230 230 232 234 236 237 238 239 238 234 230 229 229 228 226 224 224 225 220 216 218 223 225 226 231 238 239 235 233 233 234 236 238 234 228 226 227 228 230 233 237 241 241 238 236 239
211 212 213 215 216 216 215 215 215 215 215 215 215 216 217 217 218 219 219 220 222 224 226 227 228 230 231 232 233 234 234 234 235 237 237 237 236 235 233 233 233 233 234 235 236 238 239 239 236 232 230 230 228 226 226 228 229 226 222 222 224 225 226 230 237 239 236 231 229 230 232 234 234 230 228 229 228 230 236 238 240 246 250 249 247
212 213 214 216 217 217 216 216 217 217 217 217 217 218 217 218 219 219 218 219 221 224 226 227 228 229 231 232 233 233 234 234 236 236 237 236 236 234 233 234 234 234 235 235 236 237 238 239 238 234 232 231 229 226 226 229 231 231 228 226 226 227 229 231 234 237 237 232 227 227 229 230 231 232 231 230 230 232 237 240 244 250 256 256 254
212 213 214 216 217 218 217 218 218 218 219 220 219 217 217 218 219 220 221 221 223 224 225 227 228 229 231 232 233 234 233 234 235 236 236 235 234 233 233 234 234 234 235 236 236 236 238 239 238 236 234 232 230 228 227 228 231 231 230 228 228 229 231 232 232 236 237 234 229 226 227 229 231 234 235 234 235 237 238 241 245 250 254 256 258
212 213 214 216 218 219 219 219 219 219 220 220 218 217 216 218 218 219 221 221 222 223 224 226 227 228 230 231 233 233 233 233 234 235 235 233 232 232 232 233 234 234 235 235 236 236 238 239 238 236 235 233 231 229 228 229 231 232 231 230 230 231 234 234 234 236 238 237 234 229 229 230 232 235 238 239 241 244 245 246 247 250 254 258 261
212 213 213 215 218 219 220 220 221 220 220 219 217 217 217 217 218 219 219 219 220 222 223 225 227 228 230 231 232 233 233 233 233 234 234 232 231 231 232 234 234 235 236 235 236 237 238 239 238 236 236 234 232 231 230 231 231 233 233 232 233 234 237 238 237 238 238 238 237 235 234 233 233 235 238 240 244 249 252 251 251 253 254 258 263
212 212 213 215 217 219 219 220 220 219 218 217 217 217 217 217 218 219 219 219 221 222 223 225 227 229 230 231 232 232 233 233 233 234 234 231 230 230 231 233 234 235 236 236 237 237 238 240 238 237 237 236 234 233 233 233 233 234 234 234 235 235 237 239 239 240 240 240 240 239 238 237 235 235 237 240 243 247 252 255 257 257 256 259 263
213 213 214 216 218 219 219 218 219 218 217 217 217 217 217 217 218 218 219 220 221 222 223 225 227 229 231 232 232 232 233 233 233 233 232 229 228 229 230 232 234 235 236 237 238 238 239 240 239 238 238 237 236 235 235 236 235 236 236 235 236 236 238 239 241 243 244 243 243 241 240 239 237 236 237 239 242 245 250 256 260 261 262 264 268
214 214 214 216 218 218 217 216 217 217 217 217 217 218 218 217 217 217 220 221 221 221 222 224 226 228 230 231 232 232 232 233 233 233 231 229 227 229 230 232 233 235 236 237 238 239 240 241 241 240 239 238 238 236 236 238 238 238 239 239 239 240 241 241 243 246 249 249 248 246 244 242 240 239 239 240 242 244 248 253 256 259 264 268 272
213 214 214 216 218 217 216 216 217 217 217 217 218 218 217 217 217 218 220 221 220 220 221 223 225 227 228 230 231 232 232 232 232 232 230 228 227 228 229 231 233 234 236 237 238 239 241 242 242 242 242 242 241 238 238 240 241 242 242 243 243 244 245 246 247 249 251 253 254 252 250 248 245 243 242 240 242 245 248 251 254 258 264 269 271
213 214 214 215 217 216 216 216 217 218 218 218 218 218 217 218 219 219 219 219 219 219 221 223 224 225 227 229 230 232 233 233 232 232 230 228 227 228 229 230 232 234 236 237 239 240 241 242 243 244 244 245 244 243 242 243 244 245 246 246 246 246 247 248 250 251 253 256 258 257 255 253 251 249 246 243 243 245 248 251 254 259 263 267 267
215 215 214 214 215 216 216 217 219 219 219 219 219 218 218 218 219 219 218 218 218 219 221 223 224 225 226 228 229 231 232 233 234 233 231 229 228 228 229 230 232 233 235 237 239 240 241 243 245 246 246 246 247 246 246 246 246 247 248 248 248 248 248 250 251 252 254 257 258 259 259 258 256 253 251 248 245 246 249 250 253 257 261 265 266
219 218 215 212 214 217 217 218 219 220 219 220 220 220 219 219 219 218 217 217 217 218 221 223 224 224 226 228 230 231 232 234 235 235 233 231 230 230 230 231 232 233 235 237 239 240 242 244 246 247 247 248 248 249 248 247 247 247 248 250 250 250 250 252 253 254 255 257 258 259 259 260 260 256 253 251 248 248 249 249 249 253 260 265 264
218 219 218 214 214 217 217 218 220 220 220 220 220 220 219 219 219 217 217 218 218 218 221 223 223 225 228 229 230 230 231 233 234 235 235 233 232 231 231 231 232 233 234 236 239 241 242 244 246 247 248 249 250 250 250 250 249 249 250 251 252 253 254 255 257 258 259 258 259 259 259 259 260 258 254 252 249 248 248 247 248 253 260 264 260
218 219 219 218 217 217 218 219 219 220 220 220 220 220 219 219 219 217 217 218 218 218 220 223 224 227 230 229 229 230 231 232 233 234 235 234 233 233 232 233 233 233 235 236 238 240 242 243 245 247 248 249 250 252 252 252 252 252 253 254 255 257 258 259 261 262 261 260 261 261 259 259 260 256 253 251 249 247 247 248 250 254 258 259 255
221 220 218 218 217 217 217 218 219 220 220 220 222 221 220 219 218 218 219 219 218 219 221 223 227 229 229 228 228 230 230 231 233 234 234 235 235 234 234 234 234 234 235 236 238 240 242 243 245 246 248 249 251 253 254 254 255 255 256 257 259 261 262 264 265 265 264 263 264 264 262 260 258 252 249 251 249 246 247 250 252 255 257 256 255
225 222 218 216 216 215 215 217 219 221 220 221 222 222 220 218 218 220 221 219 217 219 221 224 227 228 227 227 228 229 229 231 232 233 234 234 235 234 235 234 234 235 235 236 238 239 241 243 245 246 248 250 252 253 255 256 257 257 258 259 261 264 265 267 267 267 265 264 265 267 266 264 261 253 249 251 248 243 244 248 253 256 257 257 257
230 225 221 218 218 218 219 220 221 221 222 223 224 223 223 223 223 223 220 216 217 220 222 225 226 225 226 228 228 228 229 231 232 232 233 233 234 234 235 235 235 235 235 236 237 239 241 243 244 246 249 251 253 254 255 256 258 259 260 262 264 266 268 268 268 267 267 268 268 268 266 265 262 254 249 250 246 240 241 246 251 255 256 256 257
234 230 227 224 222 222 223 224 223 224 225 225 224 226 228 228 226 222 218 217 220 222 223 225 225 225 227 228 228 229 231 232 231 231 231 232 233 235 235 236 235 235 235 236 237 238 240 241 243 246 249 252 254 255 256 257 259 260 262 263 265 267 267 267 267 267 269 271 270 269 268 264 259 251 249 249 244 241 242 246 250 255 257 256 258
234 232 230 229 227 225 224 225 225 226 225 223 222 226 228 227 224 221 220 221 222 223 224 225 224 225 226 227 228 230 231 231 230 229 229 231 233 234 235 235 235 235 236 236 237 238 239 241 243 245 248 251 254 255 257 258 258 260 262 263 264 265 264 264 264 266 267 267 266 268 268 265 259 253 252 250 246 246 248 249 253 258 258 256 259
232 231 230 230 232 232 231 230 228 226 224 222 223 226 226 225 223 222 222 222 222 222 223 223 223 224 225 227 228 230 230 229 227 227 228 230 232 234 235 234 235 236 236 237 237 238 239 240 242 244 247 250 252 254 256 257 257 259 260 261 262 261 261 261 262 264 266 265 263 265 266 264 260 256 251 247 247 249 250 250 254 257 254 255 261
230 230 230 232 236 238 238 235 230 227 225 224 226 227 226 223 222 222 222 222 221 222 224 224 225 226 226 227 228 229 229 227 226 227 229 230 232 233 234 234 234 235 235 236 236 237 239 240 242 244 246 248 251 254 255 255 257 258 258 259 259 258 258 259 259 261 265 265 266 268 266 263 260 253 244 241 244 247 247 248 251 250 250 257 261
239 237 238 241 243 241 239 235 231 229 228 226 226 226 224 221 221 222 222 221 221 224 226 227 228 229 229 229 229 229 228 227 227 229 231 232 233 234 234 234 234 235 235 236 236 237 239 240 242 244 246 248 251 253 254 255 256 257 257 257 256 255 255 256 256 258 260 261 264 266 264 262 258 247 238 237 240 242 245 248 247 244 250 262 262
246 244 243 246 249 245 239 234 230 229 228 225 224 225 223 221 222 223 223 222 224 227 228 229 231 232 231 230 229 229 228 228 230 232 233 234 234 234 234 234 235 235 235 236 237 238 239 240 242 243 245 248 250 251 252 254 255 256 256 255 252 250 250 251 253 253 254 256 260 264 264 260 251 240 235 234 235 237 242 247 241 240 254 269 263
226 238 240 243 244 242 239 237 235 233 230 226 225 224 223 224 224 224 224 227 230 233 234 235 236 234 232 230 228 228 229 230 232 234 235 235 235 235 234 234 234 235 235 236 238 238 239 239 241 242 243 245 246 247 249 252 254 255 253 249 246 244 245 248 249 248 251 254 258 263 262 252 239 236 234 228 228 234 240 241 236 242 261 270 262
71 237 244 245 241 236 235 238 239 237 234 231 229 228 227 227 226 224 228 235 239 240 241 241 238 235 233 231 229 229 230 231 233 234 234 235 236 235 234 234 234 233 234 235 236 236 237 238 239 240 241 242 244 245 248 251 252 251 246 242 242 243 246 247 246 247 250 249 250 256 254 241 231 232 224 215 223 233 238 239 242 252 263 263 261
63 31 292 264 259 248 240 240 240 238 237 236 235 235 235 234 230 229 235 240 241 241 242 242 238 235 233 232 231 231 230 231 232 233 232 234 235 235 234 234 234 233 233 233 233 233 234 235 236 238 239 240 242 244 246 247 246 242 239 239 241 243 244 243 244 248 248 244 247 253 248 229 223 221 209 209 225 235 239 245 251 255 257 257 265
48 36 21 342 297 273 262 259 255 251 248 245 242 241 240 237 235 237 240 239 237 237 238 238 235 233 233 233 232 231 230 229 230 231 231 231 232 232 232 232 231 230 229 228 229 230 231 233 234 236 236 238 240 242 240 238 235 234 234 235 236 236 236 238 244 246 240 241 249 248 229 211 213 212 206 216 229 235 241 247 248 249 252 258 266
27 26 23 15 0 322 290 277 271 269 266 260 256 252 246 241 241 243 241 238 236 236 236 235 234 233 234 234 233 232 231 229 228 229 230 229 228 229 229 228 227 226 224 223 224 225 226 228 230 232 234 236 236 233 230 227 227 228 230 230 230 229 230 236 239 234 231 239 243 227 207 203 206 205 210 222 229 234 240 241 242 246 250 256 264
9 6 359 353 350 346 339 320 303 297 290 281 272 263 256 253 251 248 244 242 240 238 236 236 236 235 235 235 233 233 232 230 227 226 227 228 227 225 224 223 222 221 220 219 218 218 220 221 224 230 234 233 229 225 223 223 224 226 228 229 228 227 230 231 226 220 225 230 217 201 199 201 201 205 215 223 227 231 235 236 239 242 245 252 264
344 339 335 331 329 326 322 321 316 305 298 297 288 270 262 260 256 252 250 248 246 243 240 238 238 237 237 236 234 232 231 229 227 225 226 227 227 224 222 222 221 220 218 217 216 215 216 216 218 224 226 224 224 225 224 224 226 227 228 227 226 227 226 219 210 210 212 202 188 190 196 198 200 208 216 220 223 226 229 231 232 233 240 253 261
343 340 334 326 322 315 309 307 305 299 292 287 280 274 269 263 257 254 252 250 248 245 242 239 238 237 236 234 232 231 230 228 226 224 222 222 223 224 223 221 219 218 216 216 215 214 213 210 210 214 216 219 223 225 225 228 231 230 227 224 222 219 212 201 198 202 196 183 184 192 195 198 204 210 211 214 219 224 226 224 223 230 244 252 256
356 349 339 330 324 317 309 303 296 292 285 274 267 265 265 264 261 257 254 252 250 247 244 241 239 236 233 230 229 229 229 227 224 222 219 217 218 220 220 221 222 221 218 215 212 209 208 208 208 210 211 213 219 225 229 234 234 228 224 221 215 209 202 195 196 197 190 187 193 197 196 200 205 206 208 214 221 224 223 218 222 238 248 250 252
4 1 352 340 329 319 312 307 298 287 275 265 261 257 255 258 260 259 258 258 257 254 250 246 242 238 234 231 228 227 228 227 223 220 218 217 218 219 220 221 224 226 226 222 213 206 205 207 208 211 211 212 218 228 234 235 230 225 223 218 211 204 200 196 195 195 194 195 197 198 199 203 204 204 210 218 223 224 219 217 228 243 247 250 255
11 12 7 356 348 340 330 321 315 309 294 277 270 268 266 265 265 267 268 267 265 261 255 250 247 243 239 236 232 229 227 226 223 220 218 216 215 216 217 216 217 219 221 220 213 208 208 208 207 207 211 215 223 233 234 226 219 218 216 213 209 205 200 196 194 195 196 197 198 199 201 204 204 207 214 221 225 224 219 220 233 242 246 253 259
18 17 14 9 1 353 345 343 343 337 325 308 297 293 289 285 282 283 282 278 273 267 259 254 249 245 243 241 238 233 227 223 220 219 216 211 207 206 206 208 210 211 211 211 211 211 212 211 205 198 199 204 210 219 223 217 209 207 205 205 205 203 198 194 194 193 194 197 200 202 204 204 206 210 218 223 224 221 219 223 231 238 246 254 259